Weather History for Pueblo, CO

Change the Weather History Date:

Tuesday, July 2, 2013

  Actual Average Record
Temperature  
Mean Temperature 69 °F 75 °F  
Max Temperature 83 °F 93 °F 104 °F (1999)
Min Temperature 54 °F 57 °F 44 °F (1945)
Degree Days  
Heating Degree Days 0 0  
Month to date heating degree days 0 0  
Since 1 June heating degree days 17 25  
Since 1 July heating degree days 0 0  
Cooling Degree Days 4 10  
Month to date cooling degree days 6 20  
Year to date cooling degree days 382 229  
Since 1 June cooling degree days 309 195  
Growing Degree Days 18 (Base 50)    
Moisture  
Dew Point 48 °F    
Average Humidity 57    
Maximum Humidity 84    
Minimum Humidity 30    
Precipitation  
Precipitation 0.03 in 0.05 in 1.87 in (1968)
Month to date precipitation 0.03 0.11  
Year to date precipitation 2.23 5.96  
Snow  
Snow 0.00 in 0.00 in 0.00 in (2002)
Month to date snowfall 0.0 0.0  
Since 1 June snowfall T 0.0  
Since 1 July snowfall 0.0 0.0  
Snow Depth 0.00 in    
Sea Level Pressure  
Sea Level Pressure 30.06 in    
Wind  
Wind Speed 6 mph (ESE)    
Max Wind Speed 26 mph    
Max Gust Speed 33 mph    
Visibility 10 miles    
Events Rain    
T = Trace of Precipitation, MM = Missing Value Source: NWS Daily Summary

Daily Weather History Graph

Daily Weather History Graph

Search for Another Location

Airport:

Trip Planner

Search our weather history database for the weather conditions in past years. The results will help you decide how hot, cold, wet, or windy it might be!

Date:

Astronomy

Jul. 02, 2013 Rise Set
Actual Time 5:38 AM MDT 8:25 PM MDT
Civil Twilight 5:07 AM MDT 8:56 PM MDT
Nautical Twilight 4:27 AM MDT 9:36 PM MDT
Astronomical Twilight 3:43 AM MDT 10:20 PM MDT
Moon 1:40 AM MDT (7/2) 3:43 PM MDT (7/2)
Length of Visible Light 15h 49m
Length of Day
14h 46m
Waning Crescent, 26% of the Moon is Illuminated
Jul 2
Waning Crescent
Jul 8
New
Jul 15
First Quarter
Jul 22
Full
Jul 29
Last Quarter

Hourly Weather History & Observations

Time (MDT) Temp. Dew Point Humidity Pressure Visibility Wind Dir Wind Speed Gust Speed Precip Events Conditions
12:53 AM 64.9 °F 48.9 °F 56% 30.14 in 10.0 mi NNW 3.5 mph - N/A   Overcast
1:53 AM 64.0 °F 55.9 °F 75% 30.12 in 10.0 mi Calm Calm - 0.03 in   Overcast
2:53 AM 60.1 °F 55.9 °F 86% 30.10 in 10.0 mi East 4.6 mph - N/A   Clear
3:53 AM 59.0 °F 53.1 °F 81% 30.10 in 10.0 mi Calm Calm - N/A   Clear
4:53 AM 57.0 °F 52.0 °F 83% 30.11 in 10.0 mi Calm Calm - N/A   Clear
5:53 AM 54.0 °F 51.1 °F 90% 30.13 in 10.0 mi WNW 4.6 mph - N/A   Partly Cloudy
6:53 AM 55.9 °F 51.1 °F 84% 30.13 in 10.0 mi Calm Calm - N/A   Clear
8:53 AM 64.9 °F 53.1 °F 65% 30.12 in 10.0 mi Calm Calm - N/A   Clear
9:53 AM 71.1 °F 52.0 °F 51% 30.10 in 10.0 mi ESE 6.9 mph - N/A   Clear
10:53 AM 73.0 °F 50.0 °F 44% 30.09 in 10.0 mi South 5.8 mph - N/A   Clear
11:53 AM 75.9 °F 48.9 °F 38% 30.06 in 10.0 mi South 6.9 mph - N/A   Clear
12:53 PM 78.1 °F 46.9 °F 33% 30.03 in 10.0 mi SSE 8.1 mph - N/A   Clear
1:53 PM 79.0 °F 46.0 °F 31% 29.99 in 10.0 mi ESE 10.4 mph - N/A   Partly Cloudy
2:53 PM 75.9 °F 48.9 °F 38% 30.04 in 10.0 mi ENE 11.5 mph - 0.00 in Rain Light Rain
3:53 PM 82.0 °F 39.9 °F 22% 29.98 in 10.0 mi SE 12.7 mph 17.3 mph 0.00 in   Clear
4:12 PM 80.6 °F 46.4 °F 30% 30.15 in 10.0 mi East 25.3 mph 33.4 mph N/A   Partly Cloudy
4:53 PM 78.1 °F 45.0 °F 31% 30.00 in 10.0 mi East 23.0 mph - N/A   Clear
5:53 PM 77.0 °F 45.0 °F 32% 30.01 in 10.0 mi ESE 16.1 mph - N/A   Clear
6:53 PM 77.0 °F 44.1 °F 31% 30.01 in 10.0 mi SE 11.5 mph - N/A   Clear
7:53 PM 75.0 °F 45.0 °F 34% 30.01 in 10.0 mi ESE 9.2 mph - N/A   Clear
8:53 PM 72.0 °F 44.1 °F 37% 30.01 in 10.0 mi ESE 5.8 mph - N/A   Clear
9:53 PM 69.1 °F 43.0 °F 39% 30.01 in 10.0 mi Calm Calm - N/A   Scattered Clouds
10:53 PM 64.9 °F 42.1 °F 43% 30.01 in 10.0 mi ENE 5.8 mph - N/A   Clear
11:53 PM 62.1 °F 41.0 °F 46% 30.01 in 10.0 mi NNE 5.8 mph - N/A   Clear